| time (UTC) | temp F | wind direction | speed MPH | gust MPH | rain 1hr in | rain 24hr in | rain mn in | humidity % | barometer mb |
| 20260506204539 | 72 | 226 | 2.0 | 0.0 | 0.00 | 0.00 | 0.00 | 56 | 1016.0 |
| 20260506203111 | 71 | 204 | 3.0 | 0.0 | 0.00 | 0.00 | 0.00 | 57 | 1016.1 |
| 20260506201523 | 72 | 218 | 2.0 | 0.0 | 0.00 | 0.00 | 0.00 | 58 | 1016.3 |
| 20260506200025 | 71 | 206 | 3.0 | 0.0 | 0.00 | 0.00 | 0.00 | 58 | 1016.5 |
| 20260506194521 | 71 | 220 | 2.0 | 0.0 | 0.00 | 0.00 | 0.00 | 57 | 1016.5 |
| 20260506191552 | 71 | 244 | 2.0 | 0.0 | 0.00 | 0.00 | 0.00 | 54 | 1016.6 |
| 20260506190050 | 71 | 242 | 1.0 | 0.0 | 0.00 | 0.00 | 0.00 | 53 | 1016.7 |
| 20260506184553 | 69 | 0.0 | 0.0 | 0.00 | 0.00 | 0.00 | 56 | 1016.9 | |
| 20260506181508 | 69 | 244 | 2.0 | 0.0 | 0.00 | 0.00 | 0.00 | 55 | 1017.0 |
| 20260506180007 | 69 | 247 | 2.0 | 0.0 | 0.00 | 0.00 | 0.00 | 58 | 1017.0 |
| 20260506174611 | 67 | 245 | 1.0 | 0.0 | 0.00 | 0.00 | 0.00 | 59 | 1017.0 |
| 20260506173101 | 66 | 249 | 1.0 | 0.0 | 0.00 | 0.00 | 0.00 | 59 | 1017.0 |
| 20260506171606 | 66 | 253 | 0.0 | 0.0 | 0.00 | 0.00 | 0.00 | 60 | 1017.1 |
| 20260506170055 | 64 | 256 | 1.0 | 0.0 | 0.00 | 0.00 | 0.00 | 64 | 1017.0 |
| 20260506164559 | 64 | 256 | 1.0 | 0.0 | 0.00 | 0.00 | 0.00 | 64 | 1017.1 |
| 20260506163114 | 64 | 266 | 0.0 | 0.0 | 0.00 | 0.00 | 0.00 | 64 | 1017.0 |
| 20260506161552 | 63 | 269 | 0.0 | 0.0 | 0.00 | 0.00 | 0.00 | 66 | 1017.0 |
| 20260506160051 | 61 | 271 | 0.0 | 0.0 | 0.00 | 0.00 | 0.00 | 67 | 1017.0 |
| 20260506154556 | 61 | 271 | 0.0 | 0.0 | 0.00 | 0.00 | 0.00 | 67 | 1017.0 |
| 20260506153109 | 60 | 271 | 0.0 | 0.0 | 0.00 | 0.00 | 0.00 | 70 | 1017.0 |
| 20260506151553 | 60 | 271 | 0.0 | 0.0 | 0.00 | 0.00 | 0.00 | 71 | 1017.0 |
| 20260506150051 | 58 | 271 | 0.0 | 0.0 | 0.00 | 0.00 | 0.00 | 76 | 1017.0 |
| 20260506144512 | 58 | 271 | 0.0 | 0.0 | 0.00 | 0.00 | 0.00 | 76 | 1017.0 |
| 20260506143011 | 56 | 271 | 0.0 | 0.0 | 0.00 | 0.00 | 0.00 | 79 | 1016.8 |
| 20260506141505 | 55 | 271 | 0.0 | 0.0 | 0.00 | 0.00 | 0.00 | 82 | 1016.7 |
| 20260506140008 | 54 | 271 | 0.0 | 0.0 | 0.00 | 0.00 | 0.00 | 84 | 1016.7 |
| 20260506134514 | 52 | 271 | 0.0 | 0.0 | 0.00 | 0.00 | 0.00 | 88 | 1016.7 |
| 20260506133013 | 50 | 271 | 0.0 | 0.0 | 0.00 | 0.00 | 0.00 | 90 | 1016.6 |
| 20260506131518 | 49 | 271 | 0.0 | 0.0 | 0.00 | 0.00 | 0.00 | 90 | 1016.6 |
| 20260506130012 | 49 | 271 | 0.0 | 0.0 | 0.00 | 0.00 | 0.00 | 89 | 1016.4 |
| 20260506124529 | 49 | 271 | 0.0 | 0.0 | 0.00 | 0.00 | 0.00 | 89 | 1016.3 |
| 20260506123029 | 49 | 271 | 0.0 | 0.0 | 0.00 | 0.00 | 0.00 | 89 | 1016.1 |
| 20260506121651 | 50 | 277 | 0.0 | 0.0 | 0.00 | 0.00 | 0.00 | 88 | 1016.0 |
| 20260506120037 | 50 | 277 | 0.0 | 0.0 | 0.00 | 0.00 | 0.00 | 88 | 1016.0 |
| 20260506114534 | 50 | 277 | 0.0 | 0.0 | 0.00 | 0.00 | 0.00 | 88 | 1015.9 |
| 20260506113034 | 50 | 277 | 0.0 | 0.0 | 0.00 | 0.00 | 0.00 | 89 | 1015.9 |
| 20260506110020 | 50 | 277 | 0.0 | 0.0 | 0.00 | 0.00 | 0.00 | 88 | 1015.7 |
| 20260506104518 | 50 | 277 | 0.0 | 0.0 | 0.00 | 0.00 | 0.00 | 88 | 1015.8 |
| 20260506103018 | 50 | 277 | 0.0 | 0.0 | 0.00 | 0.00 | 0.00 | 88 | 1015.8 |
| 20260506100028 | 50 | 277 | 0.0 | 0.0 | 0.00 | 0.00 | 0.00 | 89 | 1015.9 |
| 20260506094526 | 50 | 277 | 0.0 | 0.0 | 0.00 | 0.00 | 0.00 | 89 | 1016.0 |
| 20260506093023 | 51 | 277 | 0.0 | 0.0 | 0.00 | 0.00 | 0.00 | 89 | 1016.1 |
| 20260506090028 | 51 | 277 | 0.0 | 0.0 | 0.00 | 0.00 | 0.00 | 88 | 1016.2 |
| 20260506084535 | 51 | 277 | 0.0 | 0.0 | 0.00 | 0.00 | 0.00 | 88 | 1016.2 |
| 20260506083031 | 51 | 277 | 0.0 | 0.0 | 0.00 | 0.00 | 0.00 | 89 | 1016.3 |
| 20260506073014 | 52 | 277 | 0.0 | 0.0 | 0.00 | 0.00 | 0.00 | 88 | 1016.3 |
| 20260506061516 | 53 | 277 | 0.0 | 0.0 | 0.00 | 0.00 | 0.00 | 87 | 1015.6 |
| 20260506050117 | 54 | 277 | 0.0 | 0.0 | 0.00 | 0.00 | 0.00 | 85 | 1015.2 |
| 20260506043036 | 55 | 277 | 0.0 | 0.0 | 0.00 | 0.00 | 0.00 | 83 | 1014.8 |
| 20260506041550 | 55 | 277 | 0.0 | 0.0 | 0.00 | 0.00 | 0.00 | 82 | 1014.7 |
| 20260506040033 | 55 | 277 | 0.0 | 0.0 | 0.00 | 0.00 | 0.00 | 80 | 1014.4 |
| 20260506033055 | 56 | 277 | 0.0 | 0.0 | 0.00 | 0.00 | 0.00 | 79 | 1014.1 |
| 20260506031556 | 57 | 277 | 0.0 | 0.0 | 0.00 | 0.00 | 0.00 | 78 | 1013.9 |
| 20260506030051 | 58 | 277 | 0.0 | 0.0 | 0.00 | 0.00 | 0.00 | 76 | 1013.6 |
| 20260506023111 | 59 | 277 | 0.0 | 0.0 | 0.00 | 0.00 | 0.00 | 72 | 1013.2 |
| 20260506021602 | 59 | 277 | 0.0 | 0.0 | 0.00 | 0.00 | 0.00 | 71 | 1013.1 |
| 20260506020100 | 59 | 277 | 0.0 | 0.0 | 0.00 | 0.00 | 0.00 | 71 | 1013.0 |
| 20260506013104 | 61 | 277 | 0.0 | 0.0 | 0.00 | 0.00 | 0.00 | 68 | 1012.9 |
| 20260506011606 | 62 | 277 | 0.0 | 0.0 | 0.00 | 0.00 | 0.00 | 66 | 1013.0 |
| 20260506010057 | 61 | 277 | 0.0 | 0.0 | 0.00 | 0.00 | 0.00 | 67 | 1013.0 |
| 20260506003003 | 62 | 277 | 2.0 | 0.0 | 0.00 | 0.00 | 0.00 | 68 | 1012.8 |
| 20260506001502 | 63 | 264 | 1.0 | 0.0 | 0.00 | 0.00 | 0.00 | 67 | 1012.7 |
| 20260506000001 | 63 | 271 | 1.0 | 0.0 | 0.00 | 0.00 | 0.00 | 63 | 1012.6 |
| 20260505233059 | 65 | 277 | 0.0 | 0.0 | 0.00 | 0.00 | 0.00 | 56 | 1012.6 |
| 20260505231558 | 65 | 266 | 1.0 | 0.0 | 0.00 | 0.00 | 0.00 | 56 | 1012.5 |
| 20260505230121 | 67 | 223 | 1.0 | 0.0 | 0.00 | 0.00 | 0.00 | 57 | 1012.5 |
| 20260505223007 | 66 | 261 | 1.0 | 0.0 | 0.00 | 0.00 | 0.00 | 55 | 1012.7 |
| 20260505221508 | 65 | 226 | 1.0 | 0.0 | 0.00 | 0.00 | 0.00 | 57 | 1012.8 |
| 20260505220025 | 66 | 294 | 2.0 | 0.0 | 0.00 | 0.00 | 0.00 | 56 | 1012.8 |
| 20260505213100 | 67 | 271 | 1.0 | 0.0 | 0.00 | 0.00 | 0.00 | 51 | 1013.0 |
| 20260505211605 | 67 | 273 | 2.0 | 0.0 | 0.00 | 0.00 | 0.00 | 54 | 1013.0 |
| 20260505210107 | 67 | 265 | 3.0 | 0.0 | 0.00 | 0.00 | 0.00 | 51 | 1013.0 |